Theta_e
287 286 286 286 285 284 284 284 284 284 285 285 285 285 286 286 286 285 286 285 286 285 285 284 284 284 284 284 283 282 282 281 281 280 280 280 280 280 279 278 278 278 277 277 277 277 277 277 277 277 276 276 276 275 276 275 275 275 275 275 276 276
287 287 287 286 285 285 284 283 283 284 284 284 285 285 284 284 285 285 285 285 285 285 284 283 284 284 284 283 282 282 282 281 280 280 279 279 279 279 279 278 278 277 277 277 277 276 276 276 276 276 276 275 275 275 275 275 275 275 275 274 275 276
287 287 287 287 284 283 283 283 283 284 284 284 284 284 284 284 285 285 285 285 284 284 283 283 283 283 283 282 282 282 281 281 280 280 279 279 278 278 278 277 277 277 277 276 276 276 276 275 275 276 275 275 274 274 275 274 274 274 274 274 274 274
286 286 285 283 283 283 283 283 283 282 283 284 284 284 284 284 284 284 285 284 284 283 283 282 282 282 282 281 281 281 280 280 280 279 278 278 278 278 277 277 277 276 276 276 276 275 275 275 275 275 275 274 274 274 274 274 274 274 273 273 273 273
287 287 286 285 285 285 284 283 283 283 283 284 284 284 284 284 285 284 284 283 283 283 283 282 281 281 281 280 280 280 280 279 278 278 278 278 277 277 277 276 276 276 276 275 275 275 275 274 274 274 274 274 274 273 273 274 273 273 272 272 272 272
285 284 284 284 284 284 284 284 284 284 283 283 284 283 284 284 284 284 283 283 283 283 282 281 281 280 280 280 280 279 279 278 278 278 278 277 276 276 276 276 276 275 275 275 274 274 274 274 274 274 274 273 273 273 273 273 272 272 272 272 271 271
285 286 286 285 285 285 284 284 284 283 283 283 283 284 284 284 283 283 283 283 282 282 281 281 280 280 279 279 279 278 277 277 277 277 277 276 276 275 275 275 275 275 274 274 274 273 273 273 273 273 273 272 272 272 272 272 272 271 271 271 271 271
287 287 286 286 285 285 284 284 284 283 283 283 283 283 283 283 283 283 282 282 282 281 281 280 279 279 279 278 278 277 277 276 276 276 276 276 275 274 275 274 274 274 274 273 273 273 273 273 273 272 272 271 271 271 271 271 271 271 270 270 270 270
288 288 288 287 286 285 285 284 284 283 283 282 282 283 283 283 282 282 282 281 281 281 280 280 279 279 278 278 277 276 276 276 276 275 275 275 274 274 273 273 273 273 273 272 272 272 272 272 271 270 270 270 269 270 270 270 270 270 270 270 270 270
291 289 288 287 287 286 284 284 283 283 283 282 282 282 282 282 282 281 281 281 281 281 280 280 279 279 278 278 276 276 275 275 275 275 274 274 273 273 273 272 272 272 272 271 271 271 271 270 270 269 269 269 269 269 270 270 270 270 270 270 270 270
291 291 289 288 286 285 284 283 282 282 282 282 281 281 282 282 281 281 281 281 281 281 280 280 279 278 278 277 276 275 275 274 274 274 273 273 273 273 272 272 272 271 271 270 270 270 270 270 270 269 269 268 269 269 269 269 269 270 269 270 270 271
291 291 290 288 286 285 284 283 282 282 282 282 281 281 281 281 281 281 281 281 281 281 280 279 278 277 277 276 275 275 274 274 273 273 272 272 272 272 271 271 271 270 270 269 269 270 270 270 270 272 274 272 269 269 269 269 270 270 270 270 271 272
291 290 289 288 287 286 285 285 284 283 282 282 281 281 281 281 281 281 281 280 280 280 279 278 277 276 276 276 275 274 274 273 273 272 272 271 271 270 270 270 270 269 269 269 269 269 269 270 270 274 275 276 275 271 269 269 270 270 271 272 272 272
290 289 289 289 289 287 286 285 285 283 282 282 282 281 281 281 281 280 280 280 279 279 278 277 276 276 275 275 274 274 273 273 272 272 271 270 269 269 269 269 269 269 269 269 269 269 269 269 272 275 276 277 277 275 270 271 271 272 273 273 273 273
289 290 291 291 290 290 288 287 286 284 284 283 283 281 280 280 280 280 280 279 278 278 277 277 276 275 275 274 274 273 273 272 271 270 269 269 269 268 268 269 269 269 269 269 269 269 269 269 274 276 277 277 277 278 276 274 274 273 273 274 274 273
290 290 291 291 292 291 291 289 288 287 286 284 281 281 280 280 280 279 279 278 278 277 277 276 276 275 275 274 273 273 272 271 271 270 269 268 268 268 269 269 269 269 269 269 269 269 270 269 273 276 277 277 277 278 278 275 274 274 274 274 274 273
289 290 290 290 291 290 289 288 287 286 282 281 281 281 280 280 280 279 279 278 278 277 277 276 276 275 274 273 273 272 271 271 270 269 269 268 268 268 268 267 267 268 268 268 269 269 269 269 274 276 276 276 277 277 277 275 274 274 273 273 272 272
290 290 291 292 291 289 288 289 288 285 284 282 281 280 280 280 279 279 279 278 278 277 277 276 275 275 273 272 271 271 271 270 270 269 268 268 267 267 267 268 268 267 268 269 269 269 268 269 274 275 275 276 277 277 275 274 274 272 272 271 272 272
290 290 290 290 290 289 289 288 285 284 282 280 281 280 280 279 279 279 278 278 278 277 277 276 275 274 272 272 271 270 270 270 269 268 268 267 267 267 267 267 267 268 268 269 268 268 268 268 272 275 275 276 277 276 274 273 272 272 272 272 272 272
289 289 287 288 289 289 288 284 284 282 281 280 279 279 279 279 279 279 278 278 278 277 276 276 275 274 272 271 271 271 271 270 269 268 268 267 266 267 267 268 268 268 268 268 268 268 267 267 270 274 275 275 276 276 273 273 272 271 271 271 272 272
287 287 285 284 285 284 281 282 282 281 280 279 279 279 278 278 279 279 279 279 278 277 276 275 274 274 272 271 271 271 270 269 268 268 268 268 268 267 268 268 267 267 267 268 267 269 267 267 269 273 274 275 276 275 273 272 270 270 271 271 271 272
286 286 284 283 283 279 279 279 280 280 280 278 277 277 278 278 279 280 279 278 277 276 275 275 274 274 272 271 271 270 269 269 267 267 267 267 267 267 267 267 267 266 266 267 267 268 268 267 267 269 274 275 276 276 273 271 271 270 270 271 271 271
285 284 283 283 280 279 279 279 279 280 279 277 277 277 279 279 278 278 278 277 276 275 275 275 274 273 272 271 270 269 268 268 267 267 266 266 266 266 266 266 266 266 266 266 267 267 268 268 267 269 273 275 275 276 275 272 271 271 271 271 271 272
286 285 283 279 279 279 280 280 280 279 278 277 277 279 278 277 277 276 276 275 275 274 274 273 273 272 271 270 269 268 267 267 267 267 266 266 266 265 265 265 265 265 265 266 266 266 266 268 270 267 272 274 275 275 276 273 272 273 272 271 271 271
287 287 286 281 279 280 280 281 281 280 278 278 279 277 275 274 275 275 274 273 273 272 272 272 271 270 270 269 268 267 266 266 265 266 266 265 265 265 264 265 265 264 264 265 265 266 267 267 269 271 270 273 274 275 275 275 274 275 274 272 270 271
287 287 286 280 278 280 282 281 282 281 279 280 277 276 274 274 274 273 272 271 271 271 271 270 270 269 269 268 268 267 266 265 265 265 265 265 265 264 264 264 264 264 264 264 265 266 267 268 268 271 272 271 274 274 275 275 275 275 273 273 271 271
286 287 285 282 278 278 280 281 282 281 280 281 277 276 275 274 273 272 271 271 270 270 270 269 269 268 268 267 267 266 266 265 264 264 264 264 264 264 263 264 264 264 265 265 265 266 266 267 268 268 271 273 273 274 274 274 274 274 274 271 271 270
286 285 285 286 280 277 279 280 282 282 283 280 277 277 276 274 273 272 272 271 270 270 269 268 268 267 267 267 267 267 266 265 265 264 264 264 264 264 264 264 264 265 265 265 265 266 266 267 267 267 268 271 272 272 273 273 273 273 273 272 270 271
286 285 285 285 285 280 279 280 281 283 284 279 278 276 275 273 273 272 271 270 270 269 268 268 267 266 266 266 266 266 266 265 265 265 264 264 264 264 264 264 265 265 265 265 265 266 266 266 266 266 267 268 269 269 270 271 271 271 272 270 269 269
285 285 285 285 286 284 281 280 281 281 282 279 277 276 274 273 273 272 271 270 269 268 267 267 266 266 266 266 266 265 265 265 266 265 264 264 264 264 265 264 265 265 265 265 265 265 265 265 265 265 266 267 268 269 270 270 270 270 268 266 268 267
285 285 285 286 287 286 283 281 281 281 281 279 276 274 273 273 272 272 271 269 268 267 267 267 266 266 266 266 265 265 265 265 265 265 265 267 267 267 266 265 265 266 266 266 265 264 264 264 264 265 270 268 271 270 269 269 269 269 268 269 270 263
285 285 285 285 286 286 285 284 282 281 280 278 275 274 273 272 271 270 269 268 267 267 266 266 265 266 265 265 265 264 264 267 269 268 266 266 270 271 272 271 267 267 267 266 266 266 264 264 265 271 273 273 273 273 273 272 272 271 270 270 269 263
283 284 284 285 285 285 285 284 283 280 278 276 274 273 273 272 270 270 268 267 267 266 266 265 265 265 265 265 264 264 263 265 268 271 271 271 271 272 273 272 272 272 271 267 265 268 270 271 272 273 274 274 273 273 272 272 272 272 271 269 262 256
282 283 284 285 284 284 284 283 281 279 277 275 273 273 273 272 271 270 268 267 267 266 265 265 265 265 264 264 264 264 264 265 265 267 271 272 273 274 274 274 274 273 272 271 269 268 269 272 273 274 273 273 273 272 272 272 272 271 270 267 265 255
278 277 277 278 279 281 283 281 280 279 275 273 273 272 272 271 271 270 269 267 266 266 265 265 264 264 264 264 264 264 265 265 265 265 267 270 274 275 274 274 274 273 273 273 272 272 271 272 273 273 273 272 272 272 271 271 271 270 268 266 256 252
274 273 274 274 276 278 279 280 281 278 275 273 272 272 272 272 271 271 270 267 266 265 265 264 264 264 264 265 264 265 265 266 266 266 267 267 269 270 272 274 274 274 274 273 273 273 273 273 273 273 272 272 271 271 270 269 267 268 267 262 253 252
271 272 273 274 275 276 277 279 281 281 276 273 272 272 272 272 271 270 268 266 266 266 265 265 264 264 264 265 265 265 266 266 267 267 267 268 267 267 267 268 270 273 273 271 272 273 273 273 273 272 272 271 270 269 269 267 259 256 254 254 253 253
270 271 273 274 274 276 277 278 280 280 274 273 272 271 271 271 271 270 269 267 266 266 266 265 264 265 265 264 265 266 266 266 267 267 267 268 267 267 266 266 267 269 272 273 273 273 273 273 272 271 271 270 269 268 267 256 253 252 252 252 252 251
Wind_Speed
10 11 13 12 12 10 10 9 9 10 11 13 14 18 19 16 11 10 11 12 13 13 15 15 14 12 11 9 10 11 14 14 13 13 12 10 11 11 11 11 10 10 9 9 8 7 7 6 6 6 6 5 5 3 4 3 3 4 4 4 4 4
12 13 14 14 16 16 14 11 9 12 14 12 14 13 9 11 15 15 15 14 12 11 10 10 11 10 10 10 11 13 14 14 14 13 13 13 11 11 12 12 11 11 10 9 9 8 7 7 6 7 6 6 5 5 5 4 4 4 5 4 3 3
11 11 11 11 7 4 6 11 16 15 10 12 14 15 15 15 15 14 15 13 14 13 13 13 11 12 10 10 11 12 11 11 13 13 12 11 12 12 12 12 12 11 10 10 9 9 8 8 7 7 6 6 5 5 4 4 4 5 4 3 4 2
10 9 6 5 5 8 11 13 10 10 15 17 15 13 12 15 15 16 16 13 11 12 12 12 10 10 9 11 11 12 11 11 12 12 12 14 12 13 13 12 11 10 11 10 9 9 8 8 8 7 7 6 6 5 4 5 5 4 4 3 4 2
11 11 10 11 14 14 13 10 12 15 17 15 13 16 18 17 17 13 11 12 13 15 13 11 10 10 10 11 11 12 11 11 10 11 14 13 12 10 12 12 12 11 11 10 10 10 9 9 8 7 7 6 6 6 5 5 5 4 4 4 4 3
4 3 6 11 11 11 14 15 15 14 12 14 15 17 19 16 13 13 13 12 14 14 13 13 12 12 12 12 11 11 9 9 10 10 11 12 12 13 10 11 12 11 12 11 11 10 9 9 8 7 7 7 6 6 6 5 4 4 4 4 4 4
7 10 12 13 13 12 12 13 14 14 15 13 14 17 17 14 11 12 14 14 14 12 14 14 13 14 14 13 10 10 9 9 10 10 11 11 12 12 11 10 10 11 11 11 12 11 10 9 9 8 7 6 6 6 5 5 4 4 5 5 5 5
9 9 9 9 11 12 12 12 13 13 13 14 15 15 12 14 13 14 13 13 14 13 14 13 12 14 15 13 12 12 11 10 10 11 9 12 13 11 11 12 11 11 11 10 10 9 9 9 9 8 8 7 6 5 4 4 4 5 5 5 5 5
13 13 12 12 11 11 11 13 14 13 13 14 13 13 13 13 13 14 14 13 14 13 14 14 15 14 14 14 12 11 11 11 10 10 11 10 11 12 11 10 10 8 9 9 8 9 9 8 7 7 6 6 6 5 5 5 5 5 5 5 6 6
14 11 12 12 13 12 11 10 12 14 14 16 14 12 12 11 13 14 14 14 14 14 15 15 13 13 14 12 11 12 12 11 11 11 9 10 11 11 11 11 10 9 8 8 8 7 7 8 7 6 6 6 6 5 5 5 5 6 6 6 6 7
13 13 13 13 12 11 12 11 11 10 10 10 10 11 14 13 13 13 14 14 15 16 15 12 11 11 12 13 13 13 13 13 12 10 10 10 9 8 9 9 10 11 10 8 9 9 7 7 7 6 7 7 6 6 6 6 6 6 6 6 7 7
14 14 13 12 12 13 12 12 12 13 14 14 13 13 12 11 14 14 14 16 16 13 12 12 12 12 13 13 15 15 14 13 13 12 11 11 10 10 10 10 10 10 11 11 9 8 6 6 5 9 14 11 7 7 5 4 4 6 7 7 7 7
14 13 10 12 13 14 15 15 15 13 13 11 11 13 12 13 13 14 14 15 13 12 12 12 13 13 15 15 13 12 13 14 12 12 11 11 10 11 10 10 11 10 10 11 10 9 7 6 6 14 14 14 15 9 7 6 6 7 8 7 7 7
13 11 12 14 15 15 13 13 13 11 13 12 13 12 11 12 13 14 14 13 12 13 14 14 14 14 14 13 14 14 13 13 13 13 12 11 11 9 8 10 10 10 10 7 7 8 7 7 11 15 15 15 15 13 8 7 7 7 7 7 7 7
13 13 14 14 14 14 15 16 12 13 14 13 14 9 12 14 14 13 13 12 13 14 14 13 14 14 13 14 14 13 13 14 13 13 12 13 10 9 11 10 10 8 7 8 9 9 8 7 13 15 15 14 14 15 13 7 7 7 7 7 7 8
9 11 14 15 16 16 15 13 14 15 14 11 8 12 13 13 12 13 13 12 13 14 14 13 14 15 14 13 13 14 14 15 15 13 11 10 10 11 9 6 7 8 8 8 9 8 8 8 12 15 15 13 14 14 13 5 7 7 7 8 6 5
11 12 12 12 16 14 10 9 10 11 5 9 12 12 13 13 13 12 13 14 14 13 13 15 15 15 14 14 15 15 15 15 13 13 12 12 13 13 13 13 11 10 10 9 8 7 7 6 13 14 14 13 14 15 13 6 7 6 6 4 4 7
13 14 15 15 11 10 9 13 11 9 10 8 12 12 12 13 13 13 12 13 14 15 15 16 15 15 15 15 15 16 16 15 15 16 12 11 10 8 8 8 8 11 11 10 9 8 6 6 14 13 13 14 14 15 8 5 7 6 3 3 7 7
11 12 11 9 8 9 11 10 7 9 8 9 10 11 11 12 13 14 16 15 15 15 16 16 16 16 16 16 17 17 17 17 15 13 12 13 12 12 11 12 11 10 9 8 7 7 7 6 11 13 14 14 14 11 5 5 3 4 6 6 6 6
11 10 7 10 10 11 9 5 7 8 8 9 8 10 11 12 15 15 15 17 16 16 15 15 16 17 17 17 19 19 16 14 12 14 13 15 15 13 12 8 8 8 6 9 9 8 8 7 9 14 13 13 14 11 5 4 5 4 4 5 6 5
13 11 9 6 8 7 4 0 4 6 8 7 9 9 11 14 14 13 16 17 15 15 14 14 15 16 17 18 17 16 17 16 15 12 11 11 11 12 12 10 8 7 6 7 8 13 9 7 8 13 13 14 14 10 5 5 3 5 5 5 6 6
11 12 10 7 7 2 3 3 3 4 5 6 5 9 12 15 17 12 6 6 10 11 13 13 16 16 17 17 15 13 14 12 11 13 13 11 11 11 10 11 8 9 8 8 8 8 9 8 6 8 14 14 14 14 6 4 6 6 6 5 5 6
7 7 5 5 3 0 2 4 4 5 4 5 7 12 16 10 6 8 10 8 9 10 13 12 14 16 14 13 13 12 11 11 12 12 12 12 10 10 11 10 7 8 9 8 8 7 8 7 7 8 15 15 15 15 12 6 6 5 5 5 6 4
10 8 6 3 3 2 4 4 5 4 3 4 11 14 1 3 5 6 8 10 11 11 11 12 11 11 12 12 13 13 12 9 10 12 13 10 11 13 11 7 8 7 8 8 8 9 7 9 12 6 13 15 15 14 14 7 6 6 6 6 4 3
14 12 9 4 3 4 5 6 6 6 6 9 11 0 3 3 5 6 7 8 10 11 12 11 13 13 12 13 14 15 14 12 12 11 11 12 12 13 14 9 8 8 8 8 7 7 8 8 10 14 9 14 14 14 13 12 9 9 4 3 3 5
14 13 10 6 4 5 6 8 7 6 7 12 3 4 4 6 6 7 8 7 8 9 10 11 12 12 11 14 14 14 14 13 12 12 11 11 12 11 11 9 6 7 8 9 8 7 7 8 8 12 15 11 14 13 13 11 9 8 3 3 3 3
14 15 13 9 6 3 5 6 8 8 9 7 7 7 9 9 9 10 10 10 10 11 9 9 10 11 12 13 15 16 14 15 15 14 12 12 11 12 12 9 7 7 7 8 9 9 8 7 7 6 11 15 13 13 11 10 8 7 7 2 1 2
13 13 14 14 7 6 5 6 7 8 9 6 9 9 10 11 12 12 12 11 11 11 11 12 10 10 10 12 11 14 14 17 16 15 14 13 12 11 11 10 8 7 7 7 8 9 9 8 6 6 7 9 11 10 10 9 7 6 6 6 3 7
15 16 14 15 10 7 8 8 9 11 6 7 10 11 11 12 13 12 12 12 11 11 12 15 12 11 11 12 11 10 12 13 15 14 13 12 10 9 8 8 8 7 7 7 8 7 8 8 8 7 7 6 5 4 4 5 3 5 6 2 3 3
16 16 15 15 13 7 9 9 10 12 9 5 8 10 11 12 13 14 14 15 12 12 13 13 15 15 12 12 12 13 12 12 12 15 13 14 13 12 9 8 8 8 11 10 10 10 8 7 7 7 8 8 7 6 6 5 4 4 4 3 4 4
16 17 17 17 14 10 9 11 12 10 10 9 8 10 12 12 12 10 11 12 12 13 13 12 14 14 14 13 12 10 12 14 13 10 2 10 12 17 18 17 13 13 12 12 13 13 10 8 9 9 9 8 11 9 6 6 5 5 3 5 5 4
17 17 18 16 14 12 11 12 12 10 9 8 9 11 13 12 11 11 12 12 12 11 12 11 11 12 11 12 13 11 8 9 12 10 13 12 13 14 12 14 14 14 13 11 9 10 13 13 10 16 20 16 14 13 12 10 10 9 8 5 7 6
17 17 18 18 15 13 13 13 11 9 9 10 11 13 14 12 11 10 10 10 11 13 14 12 12 11 11 11 11 11 11 9 10 15 14 13 16 15 17 14 14 18 16 12 11 10 12 15 19 20 17 16 14 12 11 10 9 8 8 7 7 4
17 15 15 14 13 12 11 11 10 9 8 9 10 11 12 13 13 12 13 13 11 12 12 11 12 12 12 11 10 11 12 12 10 10 13 16 16 18 18 17 20 21 19 17 14 12 10 15 16 17 17 15 14 12 12 11 10 10 9 7 8 4
15 15 17 19 20 19 16 12 11 9 7 10 12 13 14 15 15 14 12 11 11 11 12 11 12 12 12 13 14 13 12 13 13 13 12 12 18 20 19 20 21 21 20 20 18 17 13 13 15 17 16 15 14 13 12 12 11 11 10 10 5 5
16 18 19 20 21 19 18 17 15 11 10 11 12 14 16 17 17 17 12 12 14 14 13 13 12 13 13 12 12 13 12 12 12 13 15 15 14 13 16 20 21 21 21 20 18 17 16 16 17 17 16 15 14 14 13 12 8 11 10 8 4 2
19 19 19 21 18 17 17 18 18 14 9 11 13 15 15 15 14 11 11 15 14 12 13 12 12 13 12 12 13 12 12 12 11 13 15 15 16 15 15 13 13 18 21 16 16 17 17 17 17 17 15 15 14 14 14 11 6 5 4 4 1 1
20 21 20 19 18 18 18 20 18 12 7 11 13 14 15 15 14 12 10 12 15 13 12 13 12 12 13 13 13 11 11 11 11 12 11 11 12 14 13 11 9 10 16 22 18 19 18 17 16 16 15 14 13 13 12 6 4 5 2 1 0 1
Wind_Direction
215 209 211 211 211 213 214 205 192 198 204 207 204 205 207 204 199 205 210 207 208 207 208 207 206 203 200 196 180 172 173 172 171 170 166 154 157 152 151 152 152 153 155 153 155 153 153 147 144 140 138 141 149 161 176 191 190 208 226 229 220 230
212 210 211 205 206 205 201 193 195 205 208 202 207 211 203 199 202 201 206 207 209 209 207 210 209 203 197 193 185 185 184 175 167 164 161 164 154 157 155 155 157 157 157 159 155 156 153 150 149 147 145 145 158 169 180 197 193 212 221 227 213 207
226 225 222 221 217 208 193 193 199 205 194 204 207 206 205 206 208 201 208 201 205 203 205 206 201 203 193 189 195 190 186 177 170 167 161 149 164 156 158 159 160 160 159 157 160 158 158 154 155 152 149 153 164 172 183 195 195 208 223 211 233 218
227 231 229 227 209 210 205 207 201 195 200 208 204 202 205 208 210 206 206 200 199 203 205 202 198 197 192 192 193 195 185 179 176 164 156 165 161 161 160 160 160 159 157 157 158 158 156 158 155 155 153 161 163 174 174 186 193 207 217 209 224 210
216 215 212 210 208 212 207 199 202 207 206 202 201 200 209 207 210 206 200 195 196 201 199 192 194 192 195 195 195 196 187 180 172 168 164 162 159 163 162 161 160 160 157 157 159 157 160 159 157 157 155 161 165 173 183 184 192 198 205 218 228 227
253 224 216 216 218 215 209 206 206 210 211 205 202 205 211 207 202 196 196 200 203 197 189 190 189 185 188 195 196 198 191 180 173 170 168 161 158 162 163 160 159 158 160 159 160 161 159 158 155 155 156 158 163 169 170 176 185 199 211 222 229 224
225 220 218 215 216 217 215 210 209 206 208 202 205 213 210 202 195 194 198 199 200 195 194 191 184 187 188 190 185 191 185 184 175 174 169 162 164 163 157 161 161 160 161 165 165 161 159 156 153 153 155 158 162 171 169 180 189 203 213 220 223 237
238 235 229 225 223 219 215 214 213 212 211 208 208 210 199 201 193 196 193 194 193 195 195 191 187 188 186 184 181 182 179 179 180 175 172 169 164 161 165 162 166 167 165 160 158 154 151 151 154 157 159 157 154 158 173 176 193 208 217 223 227 232
249 233 229 227 227 222 217 211 211 211 210 213 209 207 200 195 190 192 191 190 194 191 193 189 191 185 182 182 179 169 170 176 178 176 174 172 163 163 164 166 160 159 152 150 148 153 151 148 147 148 148 147 151 161 176 188 203 216 220 228 234 238
247 237 230 230 231 225 220 217 214 211 209 211 206 199 194 192 189 190 191 188 191 194 194 193 185 180 180 175 167 167 169 169 172 176 169 164 167 168 166 162 156 149 146 149 147 143 139 140 143 146 149 152 159 168 183 196 208 221 226 227 236 238
242 242 237 232 231 228 224 221 220 218 221 220 204 195 199 189 184 186 188 190 194 197 191 181 178 178 172 168 164 166 169 170 169 166 166 168 165 163 160 155 151 148 145 142 144 143 142 140 156 160 159 161 169 170 186 196 203 218 222 233 240 241
240 240 237 236 229 227 224 221 221 215 213 212 200 197 197 171 188 186 189 193 197 190 180 177 174 173 170 168 171 171 168 166 167 166 167 169 165 159 157 154 154 153 151 148 146 141 139 156 154 177 179 177 170 175 180 192 196 211 226 234 238 242
241 243 239 238 232 228 224 221 220 217 217 212 198 199 188 181 184 189 190 196 189 178 172 172 176 170 175 175 170 167 166 168 166 166 167 165 163 160 158 154 152 153 152 151 151 151 155 163 172 184 188 188 187 180 183 185 202 210 223 229 238 245
245 239 235 237 235 229 225 225 223 213 217 207 203 196 176 182 186 189 192 188 176 175 175 177 172 174 176 170 173 169 168 163 164 167 166 162 160 159 151 156 158 152 153 147 141 152 162 168 182 184 187 191 196 188 179 190 201 213 222 229 235 245
236 232 237 239 239 234 227 223 220 216 217 206 206 163 175 186 188 188 187 182 177 179 178 174 174 175 172 176 170 166 163 166 167 166 164 168 162 152 161 161 157 152 139 145 152 161 168 169 184 185 187 192 197 202 195 189 206 215 223 230 238 247
238 232 233 236 240 237 234 224 219 224 217 201 160 172 183 181 187 185 185 179 182 180 178 174 173 176 176 170 166 165 168 169 174 169 163 154 156 162 159 141 144 149 149 157 159 160 166 170 186 187 189 192 199 205 208 185 204 218 228 231 229 240
234 241 242 242 241 240 236 238 226 227 178 165 177 182 176 185 183 184 182 183 183 177 177 177 176 176 172 170 168 169 172 173 166 164 165 164 167 166 167 164 161 165 162 163 162 156 164 170 183 186 188 193 201 205 206 191 203 212 205 210 259 262
240 235 239 240 239 235 218 224 215 195 200 175 179 179 182 180 182 186 180 185 185 183 181 176 177 174 171 170 171 172 174 173 171 168 164 160 160 159 154 162 162 160 163 164 162 154 150 163 180 183 189 197 201 203 204 194 198 195 213 222 235 247
277 264 261 261 240 236 234 227 189 188 170 173 183 177 179 177 185 188 188 190 185 184 181 178 176 175 173 173 173 177 176 173 171 168 162 160 164 163 169 168 168 167 159 153 146 144 147 161 182 186 191 199 202 203 192 190 189 209 213 225 230 245
310 302 275 260 258 245 246 202 174 168 173 183 174 171 183 185 196 193 189 192 187 184 179 179 176 175 176 175 181 180 177 171 166 168 168 166 165 170 170 157 154 157 152 154 157 157 152 157 181 186 192 198 200 200 182 198 196 202 219 226 231 238
322 316 330 323 313 331 359 58 153 157 183 180 179 181 183 200 203 193 195 195 184 178 176 176 177 178 178 182 182 176 173 173 172 163 163 168 166 167 165 162 144 133 140 155 153 165 158 148 174 185 191 196 201 202 174 182 184 215 224 230 241 241
343 348 351 339 307 305 84 92 134 181 184 187 168 185 202 208 207 200 188 168 173 176 174 177 179 180 180 181 175 174 172 162 158 167 168 168 166 162 161 159 152 140 148 152 152 171 160 157 162 187 192 196 200 200 178 181 202 217 219 237 245 250
327 318 304 296 278 261 100 112 131 187 189 180 189 209 216 205 160 159 172 168 169 177 180 179 182 179 178 173 169 163 160 166 167 163 168 163 162 158 158 156 142 140 148 156 158 158 160 158 157 179 189 194 194 200 199 182 200 202 220 230 245 236
309 309 302 266 222 170 153 151 160 178 186 190 217 229 35 112 161 151 157 169 175 174 177 178 176 171 167 163 157 162 165 165 164 168 166 162 160 162 156 138 148 145 146 151 158 162 158 168 175 180 191 193 196 199 204 187 195 207 211 233 220 261
306 302 291 267 188 169 162 162 179 178 177 215 235 125 143 130 140 156 162 167 173 177 176 173 170 169 168 167 166 162 162 160 161 167 168 163 162 159 158 152 150 148 149 153 162 161 161 169 178 181 187 191 191 198 205 205 209 226 213 197 235 240
301 298 294 276 212 184 174 171 184 189 197 233 183 154 138 149 150 151 162 168 175 172 174 172 170 168 169 167 164 164 158 161 161 162 169 169 163 160 157 161 150 153 152 155 161 163 164 168 175 184 180 185 193 199 201 209 216 224 205 201 211 223
308 309 307 297 264 240 196 192 189 194 212 224 162 172 167 163 164 163 170 171 171 174 171 166 171 173 172 172 166 165 164 161 161 162 172 168 170 165 161 161 162 163 159 158 161 161 165 162 155 161 180 185 192 197 201 206 209 224 241 245 168 234
309 303 298 295 271 250 235 222 213 207 221 163 170 176 172 167 168 174 178 174 172 172 165 166 170 172 177 177 180 176 170 165 166 166 167 172 171 168 164 159 161 155 158 159 157 162 159 151 145 157 178 188 191 195 197 198 208 221 241 243 249 268
304 302 297 288 276 239 245 231 229 234 239 176 176 172 172 174 178 177 172 173 173 167 170 174 174 172 175 179 179 181 177 174 170 167 165 169 162 164 157 151 151 152 153 150 156 142 152 158 162 166 176 183 174 182 187 196 193 231 229 211 272 274
296 294 293 288 282 254 243 238 238 234 235 204 175 173 172 180 182 181 181 177 173 176 177 180 175 172 176 183 182 176 178 186 183 176 175 172 169 154 149 144 153 160 160 154 157 158 158 164 165 176 179 182 179 188 187 174 185 196 133 179 239 143
292 289 285 282 281 269 245 242 240 237 226 207 181 172 178 189 188 185 177 175 172 178 182 180 179 184 179 177 181 195 185 177 185 185 41 175 170 169 163 168 170 170 168 161 161 159 161 165 177 184 180 189 183 183 185 174 172 141 148 226 167 120
287 286 282 277 277 270 255 250 243 231 220 198 182 177 185 186 181 184 187 182 183 179 175 180 181 183 179 177 176 173 181 192 182 173 173 177 183 178 178 169 169 167 159 157 166 168 165 168 170 176 176 182 177 172 167 169 173 178 180 180 96 98
291 287 282 280 277 270 264 258 251 231 204 193 187 185 191 178 182 191 189 183 190 185 179 177 176 180 181 177 172 169 168 165 180 180 180 174 169 171 166 160 149 149 150 148 144 158 153 154 164 171 175 168 161 161 155 155 160 158 146 118 101 62
300 300 305 307 304 292 282 273 262 244 212 193 189 188 188 186 185 191 195 194 191 175 176 177 174 171 173 174 171 173 170 168 156 165 172 165 160 156 155 151 150 150 148 146 144 147 153 160 162 159 155 155 152 148 150 150 149 142 124 107 107 99
307 313 310 306 303 302 299 286 269 247 209 195 190 187 190 193 195 199 196 187 178 175 176 172 175 176 174 173 172 176 179 172 165 154 151 157 153 148 145 145 145 145 146 148 151 154 160 162 159 154 150 149 148 144 144 142 135 125 110 101 81 111
303 297 292 289 290 292 292 287 276 252 215 201 194 195 199 199 200 200 189 180 178 174 178 179 176 175 179 178 176 178 175 174 166 156 151 147 148 144 143 144 145 147 148 151 155 159 161 158 154 149 149 146 142 141 141 133 120 107 94 100 124 139
296 291 286 286 285 285 284 282 277 263 215 200 196 198 204 205 202 197 184 176 172 177 178 176 175 176 174 172 175 174 170 167 166 159 157 157 153 148 145 144 147 152 150 153 156 161 162 159 153 150 147 143 139 132 127 115 96 87 37 47 70 141
291 289 288 288 287 283 280 277 278 272 202 199 195 199 201 202 197 192 185 179 178 175 176 175 175 173 174 171 173 167 162 160 158 160 158 150 143 142 140 134 137 141 153 152 155 158 157 154 151 148 142 137 136 140 132 107 132 112 141 140 218 198